TimeCDT,TemperatureF,Dew PointF,Humidity,Sea Level PressureIn,VisibilityMPH,Wind Direction,Wind SpeedMPH,Gust SpeedMPH,PrecipitationIn,Events,Conditions,WindDirDegrees,DateUTC
12:56 AM,36.0,32.0,86,30.29,10.0,West,3.5,-,N/A,,Clear,280,2013-03-28 05:56:00
1:56 AM,36.0,32.0,86,30.29,10.0,WNW,3.5,-,N/A,,Clear,290,2013-03-28 06:56:00
2:56 AM,37.0,33.1,86,30.28,10.0,Calm,Calm,-,N/A,,Clear,0,2013-03-28 07:56:00
3:56 AM,30.9,28.0,89,30.27,10.0,NW,3.5,-,N/A,,Clear,310,2013-03-28 08:56:00
4:56 AM,30.9,28.0,89,30.28,10.0,WNW,3.5,-,N/A,,Clear,300,2013-03-28 09:56:00
5:56 AM,30.9,28.9,92,30.30,10.0,NNW,3.5,-,N/A,,Clear,340,2013-03-28 10:56:00
6:56 AM,34.0,30.0,85,30.31,10.0,Calm,Calm,-,N/A,,Clear,0,2013-03-28 11:56:00
7:56 AM,42.1,33.1,70,30.32,10.0,Calm,Calm,-,N/A,,Clear,0,2013-03-28 12:56:00
8:56 AM,53.1,33.1,47,30.33,10.0,NNE,5.8,-,N/A,,Clear,20,2013-03-28 13:56:00
9:56 AM,57.9,30.9,36,30.33,10.0,NE,8.1,-,N/A,,Clear,40,2013-03-28 14:56:00
10:56 AM,63.0,27.0,26,30.33,10.0,NNW,6.9,-,N/A,,Clear,340,2013-03-28 15:56:00
11:56 AM,64.9,26.1,23,30.31,10.0,North,4.6,-,N/A,,Clear,360,2013-03-28 16:56:00
12:56 PM,68.0,25.0,20,30.29,10.0,Variable,5.8,-,N/A,,Clear,0,2013-03-28 17:56:00
1:56 PM,69.1,26.1,20,30.26,10.0,Calm,Calm,-,N/A,,Clear,0,2013-03-28 18:56:00
2:56 PM,71.1,18.0,13,30.24,10.0,NNW,8.1,-,N/A,,Clear,340,2013-03-28 19:56:00
3:56 PM,72.0,21.0,15,30.21,10.0,WNW,8.1,-,N/A,,Clear,300,2013-03-28 20:56:00
4:56 PM,66.9,34.0,30,30.21,10.0,SSW,8.1,-,N/A,,Clear,210,2013-03-28 21:56:00
5:56 PM,63.0,35.1,35,30.22,10.0,SSW,5.8,-,N/A,,Clear,200,2013-03-28 22:56:00
6:56 PM,57.9,37.9,47,30.23,10.0,South,6.9,-,N/A,,Clear,180,2013-03-28 23:56:00
7:56 PM,55.9,37.9,51,30.25,10.0,SSW,3.5,-,N/A,,Clear,200,2013-03-29 00:56:00
8:56 PM,55.0,36.0,49,30.26,10.0,Calm,Calm,-,N/A,,Clear,0,2013-03-29 01:56:00
9:56 PM,53.1,36.0,52,30.27,10.0,Calm,Calm,-,N/A,,Clear,0,2013-03-29 02:56:00
10:56 PM,46.0,36.0,68,30.28,10.0,Calm,Calm,-,N/A,,Clear,0,2013-03-29 03:56:00
11:56 PM,46.0,36.0,68,30.28,10.0,Calm,Calm,-,N/A,,Clear,0,2013-03-29 04:56:00